Location: Unspecified
(0.0000°N, 0.0000°E)
Time: 05:10:06
(UTC+00:00)

Kitsat-3 - Visible Passes

Search period start: 14 May 2026 00:00
Search period end: 24 May 2026 00:00
Orbit: 697 x 716 km, 98.6° (Epoch: 13 May)

Date Brightness Start Highest point End Pass type
(mag) Time Alt. Az. Time Alt. Az. Time Alt. Az.
14 May 7.9 19:23:54 43° E 19:24:02 43° ENE 19:28:29 10° N visible
15 May 8.6 20:08:30 45° W 20:08:30 45° W 20:12:30 10° NNW visible
16 May 8.3 19:14:07 32° E 19:14:25 32° ENE 19:18:35 10° NNE visible
16 May 10.6 20:53:05 11° W 20:53:05 11° W 20:53:50 10° WNW visible
17 May 8.0 19:58:43 62° WNW 19:58:43 62° WNW 20:03:01 10° NNW visible
18 May 8.7 19:04:21 24° E 19:04:47 24° ENE 19:08:33 10° NNE visible
18 May 10.2 20:43:19 16° W 20:43:19 16° W 20:45:19 10° WNW visible
19 May 7.5 19:48:56 82° NNW 19:48:56 82° NNW 19:53:27 10° NNW visible
20 May 9.1 18:54:34 17° E 18:55:10 18° ENE 18:58:18 10° NE visible
20 May 9.8 20:33:32 22° W 20:33:32 22° W 20:36:22 10° NW visible
21 May 7.5 19:39:09 68° ENE 19:39:09 68° ENE 19:43:47 10° N visible
22 May 9.4 18:44:46 13° E 18:45:32 13° ENE 18:47:41 10° NE visible
22 May 9.3 20:23:44 29° W 20:23:44 29° W 20:27:11 10° NW visible
23 May 7.8 19:29:21 49° E 19:29:29 49° ENE 19:34:02 10° N visible
